Regional Weather Roundup
Issued by NWS

Home | Current Version | Previous Version | Graphics & Text | Print | Product List | Glossary On
Versions: 1 2 3 4 5 6 7 8 9 10 11 12 13 14 15 16 17 18 19 20 21 22 23 24 25 26 27 28 29 30 31 32 33 34 35 36 37 38 39 40 41 42 43 44 45 46 47 48 49 50
000
ASUS43 KFSD 270310
RWRSD

WEATHER ROUNDUP FOR SOUTH DAKOTA
NATIONAL WEATHER SERVICE SIOUX FALLS SD
1000 PM CDT THU APR 26 2018

NOTE: "FAIR" INDICATES FEW OR NO CLOUDS BELOW 12,000 FEET WITH NO
SIGNIFICANT WEATHER AND/OR OBSTRUCTIONS TO VISIBILITY.


SDZ001>005-009-010-012>017-270400-
NORTHWEST AND NORTH CENTRAL SOUTH DAKOTA

CITY           SKY/WX    TMP DP  RH WIND       PRES   REMARKS
BUFFALO          N/A     51  31  46 NW10      30.02
FAITH            N/A     51  34  52 W7        30.06R
MOBRIDGE       CLEAR     46  33  60 CALM      29.97S
$$

SDZ012>016-024>037-041>051-057-063-072>074-270400-
SOUTHWEST AND SOUTH CENTRAL SOUTH DAKOTA

CITY           SKY/WX    TMP DP  RH WIND       PRES   REMARKS
RAPID CTY ARPT CLEAR     44  31  60 CALM      30.11R
PIERRE         CLEAR     54  27  35 SW7       30.03S
CUSTER         CLEAR     44  23  43 W6        30.18R
ELLSWORTH AFB  CLEAR     50  33  51 NW12      30.10R
PHILIP         CLEAR     45  33  63 W6        30.07R
PINE RIDGE     CLEAR     46  34  62 E6        30.13R
SPEARFISH      FAIR      46  30  53 SW6       30.13S
WINNER         FAIR      51  31  46 SW5       30.08R
$$

SDZ004>011-016>023-039-040-270400-
NORTHEAST SOUTH DAKOTA

CITY           SKY/WX    TMP DP  RH WIND       PRES   REMARKS
ABERDEEN       CLEAR     43  28  55 S7        29.98S
WATERTOWN      CLEAR     43  30  60 SW6       30.00S
BROOKINGS      CLEAR     45  34  65 CALM      30.02S
SISSETON         N/A     44  34  67 S8        29.96F
$$

SDZ017-020-022-023-036>040-048>070-270400-
SOUTHEAST SOUTH DAKOTA

CITY           SKY/WX    TMP DP  RH WIND       PRES   REMARKS
SIOUX FALLS    CLEAR     45  31  58 CALM      30.03S
HURON          CLEAR     50  34  54 W5        30.01S
CHAMBERLAIN    CLEAR     45  34  67 W3        30.05S
MITCHELL       CLEAR     53  33  46 W5        30.04R
YANKTON        CLEAR     51  33  50 W5        30.05S
$$

ABBREVIATIONS USED IN REMARKS
   TC - TEMPERATURE IN CELSIUS
  WCI - WIND CHILL INDEX
   HX - HEAT INDEX
  VSB - VISIBILITY





USA.gov is the U.S. government's official web portal to all federal, state and local government web resources and services.